Location: Quaker Farms
(41.4276°N, 73.1557°W)
Time: 18:57:03
(UTC+00:00)

S-56A Canister/Altair - Pass Details

Date: 19 June 2021
Orbit: 631 x 2501 km, 38.9° (Epoch: 30 July)

Event Time Altitude Azimuth Distance (km) Brightness Sun altitude
Rises 10:54:28 0° 257° (WSW) 2,912 9.9 15.3°
Reaches altitude 10° 10:56:38 10° 254° (WSW) 2,034 9.2 15.7°
Maximum altitude 11:01:06 64° 173° (S) 792 7.8 16.5°
Drops below altitude 10° 11:06:46 10° 92° (E) 2,567 11.9 17.5°
Sets 11:09:48 0° 90° (E) 3,759 12.5 18.1°
